Hourly Data Report for October 23, 2014

All times are specified in Local Standard Time (LST). Add 1 hour to adjust for Daylight Saving Time where and when it is observed.

ST LEONARD CS
NEW BRUNSWICK

47°09'28.050" N
67°49'55.014" W
245.00 m
810I001
71019
WIY

Download Data

Hourly Data (October 2014)
Hourly Data Report for October 23, 2014
Temp Definition
°C
Dew Point Temp Definition
°C
Rel Hum Definition
%
Wind Dir Definition
10's deg

Wind Spd Definition
km/h
Visibility Definition
km
Stn Press Definition
kPa
Hmdx Definition


Wind Chill Definition


Weather Definition


TIME
00:00 4.7 2.0 83 4 2   99.65     LegendNANA
01:00 4.8 1.6 80 4 4   99.60     LegendNANA
02:00 4.6 1.3 79 5 3   99.60     LegendNANA
03:00 4.6 1.9 82 3 2   99.52     LegendNANA
04:00 4.9 2.4 84 4 2   99.48     LegendNANA
05:00 5.1 2.9 86 4 3   99.42     LegendNANA
06:00 5.3 3.0 85 5 1   99.39     LegendNANA
07:00 5.3 2.7 84 4 2   99.35     LegendNANA
08:00 5.4 2.6 82 4 3   99.34     LegendNANA
09:00 5.8 2.8 81 4 3   99.29     LegendNANA
10:00 6.5 3.0 79 5 5   99.26     LegendNANA
11:00 7.3 3.2 75 5 4   99.26     LegendNANA
12:00 8.0 3.7 75 3 3   99.17     LegendNANA
13:00 7.8 3.9 76 4 4   99.05     LegendNANA
14:00 7.7 4.0 77 3 5   98.97     LegendNANA
15:00 7.2 3.9 79 4 6   98.95     LegendNANA
16:00 7.0 3.5 78 4 4   98.89     LegendNANA
17:00 6.4 3.6 82 4 3   98.86     LegendNANA
18:00 6.2 3.4 82 4 3   98.79     LegendNANA
19:00 6.4 2.2 75 4 3   98.72     LegendNANA
20:00 6.0 1.6 74 4 2   98.67     LegendNANA
21:00 5.6 1.7 76 4 2   98.63     LegendNANA
22:00 5.8 1.8 76 4 3   98.55     LegendNANA
23:00 5.8 2.3 78 4 3   98.49     LegendNANA

Notes on Data Quality.

Legend

  • E = Estimated
  • M = Missing
  • NA = Not Available
  • ‡ = Partner data that is not subject to review by the National Climate Archives
Date modified: